Weather Roundup
Issued by NWS Chicago, IL

Home | Current Version | Previous Version | Text Only | Print | Product List | Glossary Off
Versions: 1 2 3 4 5 6 7 8 9 10 11 12 13 14 15 16 17 18 19 20 21 22 23 24 25 26 27 28 29 30 31 32 33 34 35 36 37 38 39 40 41 42 43 44 45 46 47 48 49 50

381
NZUS59 KLOT 281013
HRRLOT

CHICAGO AREA WEATHER ROUNDUP
NATIONAL WEATHER SERVICE CHICAGO/ROMEOVILLE IL
500 AM CDT WED SEP 28 2016

NOTE: "FAIR" INDICATES FEW OR NO CLOUDS BELOW 12,000 FEET WITH NO
SIGNIFICANT WEATHER AND/OR OBSTRUCTIONS TO VISIBILITY.

* THESE STATIONS ARE NOT UNDER NWS QUALITY CONTROL. THEY ALSO MAY NOT
  REPORT WEATHER SUCH AS PRECIPITATION OR FOG.

ILZ005-006-012>014-019>023-281100-
NORTHEAST ILLINOIS

CITY           SKY/WX    TMP DP  RH WIND       PRES   REMARKS
OHARE          LGT RAIN  53  46  77 NW6       29.78F
MIDWAY         DRIZZLE   53  46  77 N8        29.78F
AURORA         CLOUDY    52  45  77 NW12      29.80R
LANSING*       CLOUDY    55  49  82 NE6       29.76F
JOLIET*        CLOUDY    55  46  71 NE6       29.78S
WAUKEGAN       CLOUDY    50  47  89 CALM      29.80R
DUPAGE AIRPORT CLOUDY    51  44  77 NW9       29.79R
WHEELING       LGT RAIN  51  46  83 NW9       29.81R
KANKAKEE*      LGT RAIN  55  48  79 CALM      29.77R
MORRIS*        CLOUDY    52  47  82 CALM      29.77R
LEWIS AIRPORT* DRIZZLE   52  49  87 N5        29.78S
NORTHERLY ISL    N/A     52  45  77 N6          N/A
$$

WIZ051-052-058>065-066-070>072-281100-
SOUTHEAST WISCONSIN

CITY           SKY/WX    TMP DP  RH WIND       PRES   REMARKS
MILWAUKEE      LGT RAIN  51  48  89 NW7       29.80R
KENOSHA*       CLOUDY    49  47  93 NW5       29.80R
RACINE*        CLOUDY    50  47  89 NW7       29.81R
BURLINGTON     CLOUDY    47  46  97 NW7       29.81R
WAUKESHA       CLOUDY    46  46 100 NW6       29.81S
WEST BEND      LGT RAIN  48  46  93 CALM      29.81R
$$

INZ001>003-010>013-019-020-281100-
NORTHWEST INDIANA

CITY           SKY/WX    TMP DP  RH WIND       PRES   REMARKS
GARY*          LGT RAIN  57  54  88 N12       29.78R
MICHIGAN CITY* NOT AVBL
RENSSELAER*    NOT AVBL
VALPARAISO     CLOUDY    53  45  74 W3        29.77R
$$

LMZ740>746-281100-
SOUTHERN LAKE MICHIGAN

STATION/POSITION TIME  SKY/WX   TEMP WIND        PRES    VSBY
                                AIR  DIR/SP/G
                 (UTC)          (F)  (DEG/KT/KT) (MB)    (MI)
HARRISON CRIB    0940            54  330/  5/  6   N/A
BURNHAM HARBOR   1000            51  360/  8       N/A
CALUMET HARBOR   0948            54  340/  7/ 12 1007.8F
BURNS HARBOR     1001            58   70/  7/ 15 1008.5
MICHIGAN CITY    0940            55   30/  9/ 12   N/A
$$

ABBREVIATIONS USED IN REMARKS
   TC - TEMPERATURE IN CELSIUS
  WCI - WIND CHILL INDEX
   HX - HEAT INDEX
  VSB - VISIBILITY
$$




USA.gov is the U.S. government's official web portal to all federal, state and local government web resources and services.